Location: Silent Lake
(44.9206°N, 78.0708°W)
Time: 21:33:41
(UTC-04:00)

Sich 1 - Pass Details

Date: 19 April 2018
Orbit: 594 x 627 km, 82.5° (Epoch: 22 May)

Event Time Altitude Azimuth Distance (km) Brightness Sun altitude
Rises 21:05:31 0° 348° (NNW) 2,854 7.1 -11.0°
Reaches altitude 10° 21:07:45 10° 346° (NNW) 1,944 6.3 -11.4°
Maximum altitude 21:12:00 67° 265° (W) 649 3.3 -12.0°
Drops below altitude 10° 21:16:13 10° 182° (S) 1,923 5.3 -12.7°
Enters shadow 21:18:10 - 180° (S) 2,720 6.1 -13.0°
